This is the latest recevied weather packets stored in our database for station/object IU1JVO-13. If no packets are shown the sender has not sent any weather packets the latest 10 day(s).
| Time | Temp. | Humidity | Pressure | Rain* | Wind** | Luminosity | Snow |
|---|---|---|---|---|---|---|---|
| 1787455787 | 17.78° C | 58% | 1020.3 hPa | 0 mm | - | - | - |
| 1787455187 | 17.78° C | 59% | 1020.3 hPa | 0 mm | - | - | - |
| 1787454658 | 17.78° C | 60% | 1020.3 hPa | 0 mm | - | - | - |
| 1787453987 | 17.78° C | 60% | 1020.6 hPa | 0 mm | - | - | - |
| 1787453455 | 17.78° C | 61% | 1020.4 hPa | 0 mm | - | - | - |
| 1787452787 | 17.78° C | 60% | 1020.6 hPa | 0 mm | - | - | - |
| 1787452186 | 17.78° C | 61% | 1020.8 hPa | 0 mm | - | - | - |
| 1787451587 | 17.78° C | 61% | 1020.6 hPa | 0 mm | - | - | - |
| 1787450987 | 17.22° C | 64% | 1020.7 hPa | 0 mm | - | - | - |
| 1787450390 | 18.33° C | 60% | 1020.7 hPa | 0 mm | - | - | - |
| 1787449787 | 18.33° C | 59% | 1020.9 hPa | 0 mm | - | - | - |
| 1787449187 | 18.33° C | 58% | 1020.9 hPa | 0 mm | - | - | - |
| 1787448588 | 18.33° C | 60% | 1020.9 hPa | 0 mm | - | - | - |
| 1787447987 | 18.33° C | 60% | 1020.9 hPa | 0 mm | - | - | - |
| 1787447387 | 18.89° C | 58% | 1020.9 hPa | 0 mm | - | - | - |
| 1787446786 | 18.89° C | 57% | 1021 hPa | 0 mm | - | - | - |
| 1787446187 | 18.89° C | 57% | 1021 hPa | 0 mm | - | - | - |
| 1787445656 | 18.89° C | 58% | 1020.9 hPa | 0 mm | - | - | - |
| 1787444988 | 18.89° C | 59% | 1021 hPa | 0 mm | - | - | - |
| 1787444388 | 18.89° C | 59% | 1020.9 hPa | 0 mm | - | - | - |
| 1787443849 | 19.44° C | 58% | 1020.9 hPa | 0 mm | - | - | - |
| 1787443187 | 19.44° C | 58% | 1020.9 hPa | 0 mm | - | - | - |
| 1787442587 | 19.44° C | 57% | 1021 hPa | 0 mm | - | - | - |
| 1787441987 | 19.44° C | 57% | 1021 hPa | 0 mm | - | - | - |
| 1787441388 | 19.44° C | 57% | 1020.8 hPa | 0 mm | - | - | - |
* Rain latest hour (hover to see other rain measurements)
** Current wind speed in m/s (hover to see current wind gust speed)